Other Public Products
Issued by NWS Charleston, SC

Current Version | Previous Version | Text Only | Print | Product List | Glossary Off
Versions: 1 2 3 4 5 6 7 8 9 10 11 12 13 14 15 16 17 18 19 20 21 22 23 24 25 26 27 28 29 30 31 32 33 34 35 36 37 38 39 40 41 42 43 44 45 46 47 48 49 50

000
FPUS82 KCHS 201012
OPUCHS

TEST...KCHS/KSAV Gateway Observations...TEST
National Weather Service Charleston SC
600 AM EDT FRI OCT 20 2017

NOTE: "fair" indicates few or no clouds below 12,000 feet with no
significant weather and/or obstructions to visibility.

SCZ050-WAZ558-NCZ071-TXZ119-213-PAZ071-DCZ001-FLZ074-172-MI076-
NYZ176-178-MAZ016-IL014-TNZ027-NJZ106-GAZ044-MD014-201100-

...Gateway Observations for Charleston International...

CITY           SKY/WX    TMP DP  RH WIND       PRES   REMARKS
Chas Airport   FAIR      55  53  93 N6        30.21R
Seattle        CLOUDY    48  45  89 SW16G22   29.55R
Charlotte      FAIR      46  45  96 CALM      30.24R
Dallas DFW     MOCLDY    64  58  80 SE3       30.06F
Dallas Love    MOCLDY    66  57  72 SE7       30.07F
Philladelphia  FAIR      59  46  62 W9        30.15R
Wash National  FAIR      56  53  90 CALM      30.19R
Baltimore      FAIR      51  47  86 W6        30.18R
Miami          FAIR      80  74  81 CALM      30.00S
Detroit        FAIR      46  36  68 CALM      30.25R
Newark         FAIR      55  47  74 W8        30.11R
Laguardia      FAIR      64  46  52 W13G20    30.10R
J F K          FAIR      59  48  67 W10       30.11R
Boston Logan   FAIR      61  46  57 W15       29.99R
Ft. Lauderdale FAIR      79  75  87 E8        30.00S
Chicago O`Hare FAIR      51  44  77 S3        30.15R
Chicago Midway FAIR      55  48  77 S5        30.16R
Houston Bush   MOCLDY    70  66  87 NE6       30.03S
Houston Hobby  TSTM      74  70  87 SE8       30.03R FOG
Nashville      FAIR      47  44  90 CALM      30.28R
Atlanta        FAIR      49  45  86 NW6       30.26R

$$

GAZ044-118-TXZ119-213-NCZ071-DCZ001-MDZ014-506-PAZ021-071-NJZ106-
NYZ176-178-MAZ106-OHZ011-021-055-MIZ076-KYZ091-ILZ014-INZ047-
MNZ060-ONZ431-201100-

...Gateway Observations for Savannah International...

CITY           SKY/WX    TMP DP  RH WIND       PRES   REMARKS
Savannah Arpt  FAIR      56  55  97 N3        30.21R
Atlanta        FAIR      49  45  86 NW6       30.26R
Charlotte      FAIR      46  45  96 CALM      30.24R
Dallas DFW     MOCLDY    64  58  80 SE3       30.06F
Houston Bush   MOCLDY    70  66  87 NE6       30.03S
Wash National  FAIR      56  53  90 CALM      30.19R
Wash Dulles    FAIR      47  46  97 CALM      30.20R
Baltimore      FAIR      51  47  86 W6        30.18R
Philadelphia   FAIR      59  46  62 W9        30.15R
Newark         FAIR      55  47  74 W8        30.11R
Laguardia      FAIR      64  46  52 W13G20    30.10R
J F K          FAIR      59  48  67 W10       30.11R
Boston         FAIR      61  46  57 W15       29.99R
Pittsburg      FAIR      51  47  86 CALM      30.23R
Akron          FAIR      49  43  80 W3        30.25R
Cleveland      FAIR      46  44  93 S3        30.27R
Cincinnati     FAIR      46  46 100 S3        30.26R
Columbus       FAIR      47  47 100 CALM      30.25R
Detroit        FAIR      46  36  68 CALM      30.25R
Chicago O`Hare FAIR      51  44  77 S3        30.15R
Minneapolis    FAIR      53  50  89 SE7       29.89F
Indianapolis   FAIR      52  50  93 SE3       30.24R
Toronto Canada CLEAR     48  36  61 W9        30.18R

$$




USA.gov is the U.S. government's official web portal to all federal, state and local government web resources and services.